Year,Month,Day,Hour,Minute,Value (Times are PST for windspeed in km/hr)
2018,01,22,00,00,0.80
2018,01,22,00,01,0.60
2018,01,22,00,02,2.90
2018,01,22,00,03,5.60
2018,01,22,00,04,4.70
2018,01,22,00,05,6.90
2018,01,22,00,06,3.40
2018,01,22,00,07,5.20
2018,01,22,00,08,4.10
2018,01,22,00,09,1.30
2018,01,22,00,10,6.10
2018,01,22,00,11,4.70
2018,01,22,00,12,1.40
2018,01,22,00,13,1.80
2018,01,22,00,14,2.90
2018,01,22,00,15,3.50
2018,01,22,00,16,1.70
2018,01,22,00,17,3.70
2018,01,22,00,18,3.50
2018,01,22,00,19,2.30
2018,01,22,00,20,0.20
2018,01,22,00,21,0.00
2018,01,22,00,22,0.50
2018,01,22,00,23,2.70
2018,01,22,00,24,2.40
2018,01,22,00,25,3.40
2018,01,22,00,26,3.80
2018,01,22,00,27,2.60
2018,01,22,00,28,1.40
2018,01,22,00,29,1.50
2018,01,22,00,30,3.00
2018,01,22,00,31,1.00
2018,01,22,00,32,1.50
2018,01,22,00,33,2.20
2018,01,22,00,34,2.10
2018,01,22,00,35,2.60
2018,01,22,00,36,3.50
2018,01,22,00,37,2.80
2018,01,22,00,38,1.00
2018,01,22,00,39,0.10
2018,01,22,00,40,0.00
2018,01,22,00,41,0.10
2018,01,22,00,42,0.10
2018,01,22,00,43,0.00
2018,01,22,00,44,0.00
2018,01,22,00,45,0.00
2018,01,22,00,46,0.00
2018,01,22,00,47,0.00
2018,01,22,00,48,0.00
2018,01,22,00,49,0.00
2018,01,22,00,50,1.20
2018,01,22,00,51,4.10
2018,01,22,00,52,4.40
2018,01,22,00,53,2.70
2018,01,22,00,54,1.10
2018,01,22,00,55,0.70
2018,01,22,00,56,0.00
2018,01,22,00,57,0.00
2018,01,22,00,58,0.00
2018,01,22,00,59,0.50
2018,01,22,01,00,0.00
2018,01,22,01,01,0.00
2018,01,22,01,02,0.00
2018,01,22,01,03,0.00
2018,01,22,01,04,0.00
2018,01,22,01,05,0.60
2018,01,22,01,06,2.10
2018,01,22,01,07,1.30
2018,01,22,01,08,1.80
2018,01,22,01,09,2.00
2018,01,22,01,10,2.60
2018,01,22,01,11,2.40
2018,01,22,01,12,3.60
2018,01,22,01,13,2.70
2018,01,22,01,14,2.30
2018,01,22,01,15,1.00
2018,01,22,01,16,2.10
2018,01,22,01,17,3.20
2018,01,22,01,18,2.70
2018,01,22,01,19,1.30
2018,01,22,01,20,3.80
2018,01,22,01,21,6.80
2018,01,22,01,22,4.30
2018,01,22,01,23,5.70
2018,01,22,01,24,4.30
2018,01,22,01,25,2.50
2018,01,22,01,26,3.10
2018,01,22,01,27,4.90
2018,01,22,01,28,4.80
2018,01,22,01,29,1.00
2018,01,22,01,30,0.20
2018,01,22,01,31,1.20
2018,01,22,01,32,0.40
2018,01,22,01,33,0.10
2018,01,22,01,34,2.00
2018,01,22,01,35,0.20
2018,01,22,01,36,1.40
2018,01,22,01,37,3.20
2018,01,22,01,38,1.40
2018,01,22,01,39,0.60
2018,01,22,01,40,1.80
2018,01,22,01,41,2.70
2018,01,22,01,42,1.10
2018,01,22,01,43,0.60
2018,01,22,01,44,0.00
2018,01,22,01,45,0.40
2018,01,22,01,46,0.00
2018,01,22,01,47,0.00
2018,01,22,01,48,0.00
2018,01,22,01,49,0.00
2018,01,22,01,50,0.00
2018,01,22,01,51,0.00
2018,01,22,01,52,0.00
2018,01,22,01,53,0.00
2018,01,22,01,54,0.00
2018,01,22,01,55,0.00
2018,01,22,01,56,1.90
2018,01,22,01,57,2.10
2018,01,22,01,58,2.70
2018,01,22,01,59,2.30
2018,01,22,02,00,2.40
2018,01,22,02,01,5.20
2018,01,22,02,02,3.20
2018,01,22,02,03,3.10
2018,01,22,02,04,6.80
2018,01,22,02,05,5.20
2018,01,22,02,06,2.80
2018,01,22,02,07,2.10
2018,01,22,02,08,4.30
2018,01,22,02,09,4.70
2018,01,22,02,10,7.90
2018,01,22,02,11,8.60
2018,01,22,02,12,7.40
2018,01,22,02,13,6.20
2018,01,22,02,14,2.70
2018,01,22,02,15,0.40
2018,01,22,02,16,0.90
2018,01,22,02,17,0.70
2018,01,22,02,18,2.50
2018,01,22,02,19,2.20
2018,01,22,02,20,2.70
2018,01,22,02,21,3.80
2018,01,22,02,22,3.10
2018,01,22,02,23,4.70
2018,01,22,02,24,5.40
2018,01,22,02,25,9.70
2018,01,22,02,26,9.20
2018,01,22,02,27,10.30
2018,01,22,02,28,9.80
2018,01,22,02,29,8.10
2018,01,22,02,30,7.70
2018,01,22,02,31,4.00
2018,01,22,02,32,6.90
2018,01,22,02,33,5.10
2018,01,22,02,34,6.10
2018,01,22,02,35,2.60
2018,01,22,02,36,3.60
2018,01,22,02,37,3.40
2018,01,22,02,38,3.50
2018,01,22,02,39,2.70
2018,01,22,02,40,3.70
2018,01,22,02,41,1.50
2018,01,22,02,42,2.10
2018,01,22,02,43,5.40
2018,01,22,02,44,7.20
2018,01,22,02,45,8.90
2018,01,22,02,46,6.00
2018,01,22,02,47,6.20
2018,01,22,02,48,4.80
2018,01,22,02,49,2.60
2018,01,22,02,50,3.70
2018,01,22,02,51,3.20
2018,01,22,02,52,1.80
2018,01,22,02,53,1.90
2018,01,22,02,54,3.70
2018,01,22,02,55,4.40
2018,01,22,02,56,4.70
2018,01,22,02,57,6.40
2018,01,22,02,58,7.10
2018,01,22,02,59,6.90
2018,01,22,03,00,4.30
2018,01,22,03,01,5.60
2018,01,22,03,02,5.90
2018,01,22,03,03,3.40
2018,01,22,03,04,4.10
2018,01,22,03,05,2.70
2018,01,22,03,06,3.90
2018,01,22,03,07,4.10
2018,01,22,03,08,3.80
2018,01,22,03,09,4.70
2018,01,22,03,10,2.10
2018,01,22,03,11,2.20
2018,01,22,03,12,1.40
2018,01,22,03,13,2.50
2018,01,22,03,14,2.50
2018,01,22,03,15,0.60
2018,01,22,03,16,0.80
2018,01,22,03,17,1.80
2018,01,22,03,18,1.60
2018,01,22,03,19,1.10
2018,01,22,03,20,1.60
2018,01,22,03,21,4.70
2018,01,22,03,22,4.80
2018,01,22,03,23,2.10
2018,01,22,03,24,6.00
2018,01,22,03,25,1.70
2018,01,22,03,26,2.30
2018,01,22,03,27,6.60
2018,01,22,03,28,6.60
2018,01,22,03,29,3.20
2018,01,22,03,30,1.40
2018,01,22,03,31,1.70
2018,01,22,03,32,0.80
2018,01,22,03,33,0.50
2018,01,22,03,34,0.00
2018,01,22,03,35,2.00
2018,01,22,03,36,1.90
2018,01,22,03,37,2.70
2018,01,22,03,38,6.00
2018,01,22,03,39,7.70
2018,01,22,03,40,3.90
2018,01,22,03,41,1.20
2018,01,22,03,42,0.70
2018,01,22,03,43,2.90
2018,01,22,03,44,2.30
2018,01,22,03,45,0.10
2018,01,22,03,46,0.00
2018,01,22,03,47,0.00
2018,01,22,03,48,0.60
2018,01,22,03,49,0.10
2018,01,22,03,50,0.20
2018,01,22,03,51,0.10
2018,01,22,03,52,0.00
2018,01,22,03,53,0.80
2018,01,22,03,54,0.00
2018,01,22,03,55,0.10
2018,01,22,03,56,0.00
2018,01,22,03,57,0.00
2018,01,22,03,58,0.00
2018,01,22,03,59,0.00
2018,01,22,04,00,0.00
2018,01,22,04,01,0.00
2018,01,22,04,02,0.00
2018,01,22,04,03,0.00
2018,01,22,04,04,0.00
2018,01,22,04,05,1.70
2018,01,22,04,06,2.50
2018,01,22,04,07,0.00
2018,01,22,04,08,0.00
2018,01,22,04,09,0.00
2018,01,22,04,10,0.00
2018,01,22,04,11,0.90
2018,01,22,04,12,2.80
2018,01,22,04,13,0.10
2018,01,22,04,14,3.20
2018,01,22,04,15,1.10
2018,01,22,04,16,0.10
2018,01,22,04,17,1.60
2018,01,22,04,18,4.80
2018,01,22,04,19,3.80
2018,01,22,04,20,4.40
2018,01,22,04,21,3.30
2018,01,22,04,22,4.90
2018,01,22,04,23,2.80
2018,01,22,04,24,4.50
2018,01,22,04,25,3.10
2018,01,22,04,26,3.10
2018,01,22,04,27,4.30
2018,01,22,04,28,7.50
2018,01,22,04,29,8.40
2018,01,22,04,30,6.40
2018,01,22,04,31,1.90
2018,01,22,04,32,6.90
2018,01,22,04,33,4.30
2018,01,22,04,34,3.90
2018,01,22,04,35,5.90
2018,01,22,04,36,7.70
2018,01,22,04,37,7.00
2018,01,22,04,38,2.60
2018,01,22,04,39,1.80
2018,01,22,04,40,2.20
2018,01,22,04,41,1.30
2018,01,22,04,42,1.50
2018,01,22,04,43,6.90
2018,01,22,04,44,5.10
2018,01,22,04,45,3.20
2018,01,22,04,46,1.30
2018,01,22,04,47,1.00
2018,01,22,04,48,3.50
2018,01,22,04,49,3.10
2018,01,22,04,50,3.00
2018,01,22,04,51,2.50
2018,01,22,04,52,2.90
2018,01,22,04,53,2.30
2018,01,22,04,54,2.20
2018,01,22,04,55,2.00
2018,01,22,04,56,1.40
2018,01,22,04,57,2.10
2018,01,22,04,58,2.50
2018,01,22,04,59,1.60
2018,01,22,05,00,0.40
2018,01,22,05,01,0.00
2018,01,22,05,02,0.80
2018,01,22,05,03,0.70
2018,01,22,05,04,0.00
2018,01,22,05,05,0.00
2018,01,22,05,06,0.00
2018,01,22,05,07,0.00
2018,01,22,05,08,0.00
2018,01,22,05,09,0.10
2018,01,22,05,10,0.50
2018,01,22,05,11,2.20
2018,01,22,05,12,2.30
2018,01,22,05,13,2.40
2018,01,22,05,14,0.10
2018,01,22,05,15,0.00
2018,01,22,05,16,0.00
2018,01,22,05,17,0.00
2018,01,22,05,18,0.00
2018,01,22,05,19,0.00
2018,01,22,05,20,0.00
2018,01,22,05,21,0.00
2018,01,22,05,22,0.00
2018,01,22,05,23,1.00
2018,01,22,05,24,3.30
2018,01,22,05,25,4.70
2018,01,22,05,26,5.00
2018,01,22,05,27,3.20
2018,01,22,05,28,2.50
2018,01,22,05,29,1.40
2018,01,22,05,30,1.00
2018,01,22,05,31,0.50
2018,01,22,05,32,0.20
2018,01,22,05,33,3.40
2018,01,22,05,34,1.90
2018,01,22,05,35,0.70
2018,01,22,05,36,1.40
2018,01,22,05,37,1.60
2018,01,22,05,38,2.50
2018,01,22,05,39,0.00
2018,01,22,05,40,0.00
2018,01,22,05,41,0.00
2018,01,22,05,42,0.00
2018,01,22,05,43,0.00
2018,01,22,05,44,0.00
2018,01,22,05,45,1.10
2018,01,22,05,46,3.90
2018,01,22,05,47,3.50
2018,01,22,05,48,3.40
2018,01,22,05,49,2.30
2018,01,22,05,50,2.40
2018,01,22,05,51,2.00
2018,01,22,05,52,1.50
2018,01,22,05,53,2.30
2018,01,22,05,54,1.10
2018,01,22,05,55,0.10
2018,01,22,05,56,0.00
2018,01,22,05,57,0.00
2018,01,22,05,58,0.00
2018,01,22,05,59,0.00
2018,01,22,06,00,0.00
2018,01,22,06,01,0.00
2018,01,22,06,02,0.00
2018,01,22,06,03,0.00
2018,01,22,06,04,0.00
2018,01,22,06,05,0.00
2018,01,22,06,06,0.00
2018,01,22,06,07,1.40
2018,01,22,06,08,1.00
2018,01,22,06,09,0.80
2018,01,22,06,10,1.00
2018,01,22,06,11,0.00
2018,01,22,06,12,0.00
2018,01,22,06,13,0.00
2018,01,22,06,14,0.00
2018,01,22,06,15,0.00
2018,01,22,06,16,0.00
2018,01,22,06,17,0.00
2018,01,22,06,18,0.00
2018,01,22,06,19,0.00
2018,01,22,06,20,0.00
2018,01,22,06,21,0.00
2018,01,22,06,22,0.00
2018,01,22,06,23,0.00
2018,01,22,06,24,0.00
2018,01,22,06,25,0.00
2018,01,22,06,26,0.00
2018,01,22,06,27,0.00
2018,01,22,06,28,0.00
2018,01,22,06,29,0.00
2018,01,22,06,30,0.00
2018,01,22,06,31,0.00
2018,01,22,06,32,0.00
2018,01,22,06,33,0.20
2018,01,22,06,34,3.70
2018,01,22,06,35,0.80
2018,01,22,06,36,1.00
2018,01,22,06,37,0.00
2018,01,22,06,38,0.00
2018,01,22,06,39,0.00
2018,01,22,06,40,0.00
2018,01,22,06,41,0.00
2018,01,22,06,42,0.00
2018,01,22,06,43,0.00
2018,01,22,06,44,0.40
2018,01,22,06,45,5.60
2018,01,22,06,46,4.40
2018,01,22,06,47,1.50
2018,01,22,06,48,0.30
2018,01,22,06,49,0.20
2018,01,22,06,50,0.00
2018,01,22,06,51,0.00
2018,01,22,06,52,0.00
2018,01,22,06,53,0.00
2018,01,22,06,54,1.00
2018,01,22,06,55,3.70
2018,01,22,06,56,3.00
2018,01,22,06,57,0.80
2018,01,22,06,58,0.60
2018,01,22,06,59,0.00
2018,01,22,07,00,0.00
2018,01,22,07,01,0.00
2018,01,22,07,02,0.20
2018,01,22,07,03,0.00
2018,01,22,07,04,0.00
2018,01,22,07,05,0.00
2018,01,22,07,06,0.00
2018,01,22,07,07,0.00
2018,01,22,07,08,3.50
2018,01,22,07,09,6.10
2018,01,22,07,10,5.30
2018,01,22,07,11,5.10
2018,01,22,07,12,4.60
2018,01,22,07,13,3.80
2018,01,22,07,14,3.50
2018,01,22,07,15,2.20
2018,01,22,07,16,0.90
2018,01,22,07,17,0.00
2018,01,22,07,18,0.00
2018,01,22,07,19,0.00
2018,01,22,07,20,0.00
2018,01,22,07,21,0.00
2018,01,22,07,22,6.00
2018,01,22,07,23,5.90
2018,01,22,07,24,4.80
2018,01,22,07,25,5.60
2018,01,22,07,26,6.90
2018,01,22,07,27,4.80
2018,01,22,07,28,3.20
2018,01,22,07,29,5.10
2018,01,22,07,30,5.60
2018,01,22,07,31,4.20
2018,01,22,07,32,4.70
2018,01,22,07,33,5.20
2018,01,22,07,34,3.30
2018,01,22,07,35,4.40
2018,01,22,07,36,5.50
2018,01,22,07,37,5.80
2018,01,22,07,38,4.80
2018,01,22,07,39,5.00
2018,01,22,07,40,5.90
2018,01,22,07,41,4.20
2018,01,22,07,42,5.70
2018,01,22,07,43,4.70
2018,01,22,07,44,2.00
2018,01,22,07,45,2.90
2018,01,22,07,46,3.90
2018,01,22,07,47,3.90
2018,01,22,07,48,5.20
2018,01,22,07,49,6.30
2018,01,22,07,50,5.70
2018,01,22,07,51,7.60
2018,01,22,07,52,6.00
2018,01,22,07,53,3.60
2018,01,22,07,54,2.80
2018,01,22,07,55,3.90
2018,01,22,07,56,1.90
2018,01,22,07,57,3.40
2018,01,22,07,58,2.60
2018,01,22,07,59,2.60
2018,01,22,08,00,4.00
2018,01,22,08,01,3.70
2018,01,22,08,02,0.20
2018,01,22,08,03,0.10
2018,01,22,08,04,0.10
2018,01,22,08,05,0.20
2018,01,22,08,06,0.10
2018,01,22,08,07,1.30
2018,01,22,08,08,0.10
2018,01,22,08,09,0.00
2018,01,22,08,10,0.00
2018,01,22,08,11,0.00
2018,01,22,08,12,0.00
2018,01,22,08,13,1.80
2018,01,22,08,14,5.40
2018,01,22,08,15,8.80
2018,01,22,08,16,5.70
2018,01,22,08,17,3.10
2018,01,22,08,18,3.50
2018,01,22,08,19,0.60
2018,01,22,08,20,1.00
2018,01,22,08,21,4.60
2018,01,22,08,22,7.20
2018,01,22,08,23,5.40
2018,01,22,08,24,5.00
2018,01,22,08,25,1.40
2018,01,22,08,26,1.30
2018,01,22,08,27,0.90
2018,01,22,08,28,3.10
2018,01,22,08,29,6.50
2018,01,22,08,30,4.50
2018,01,22,08,31,1.30
2018,01,22,08,32,5.10
2018,01,22,08,33,4.90
2018,01,22,08,34,5.50
2018,01,22,08,35,6.00
2018,01,22,08,36,5.10
2018,01,22,08,37,1.70
2018,01,22,08,38,0.20
2018,01,22,08,39,1.70
2018,01,22,08,40,6.50
2018,01,22,08,41,10.10
2018,01,22,08,42,11.30
2018,01,22,08,43,8.00
2018,01,22,08,44,1.40
2018,01,22,08,45,4.20
2018,01,22,08,46,6.30
2018,01,22,08,47,4.90
2018,01,22,08,48,2.80
2018,01,22,08,49,4.20
2018,01,22,08,50,4.90
2018,01,22,08,51,4.10
2018,01,22,08,52,0.70
2018,01,22,08,53,0.00
2018,01,22,08,54,1.10
2018,01,22,08,55,2.80
2018,01,22,08,56,1.10
2018,01,22,08,57,0.00
2018,01,22,08,58,0.00
2018,01,22,08,59,0.00
2018,01,22,09,00,0.00
2018,01,22,09,01,0.00
2018,01,22,09,02,0.50
2018,01,22,09,03,3.70
2018,01,22,09,04,3.90
2018,01,22,09,05,3.00
2018,01,22,09,06,0.90
2018,01,22,09,07,0.00
2018,01,22,09,08,0.30
2018,01,22,09,09,3.30
2018,01,22,09,10,3.20
2018,01,22,09,11,2.70
2018,01,22,09,12,1.50
2018,01,22,09,13,0.00
2018,01,22,09,14,0.00
2018,01,22,09,15,0.00
2018,01,22,09,16,0.00
2018,01,22,09,17,1.90
2018,01,22,09,18,2.80
2018,01,22,09,19,3.60
2018,01,22,09,20,1.90
2018,01,22,09,21,0.80
2018,01,22,09,22,0.30
2018,01,22,09,23,0.50
2018,01,22,09,24,2.60
2018,01,22,09,25,1.40
2018,01,22,09,26,0.00
2018,01,22,09,27,0.00
2018,01,22,09,28,0.50
2018,01,22,09,29,1.40
2018,01,22,09,30,0.60
2018,01,22,09,31,1.80
2018,01,22,09,32,2.20
2018,01,22,09,33,3.10
2018,01,22,09,34,0.20
2018,01,22,09,35,0.60
2018,01,22,09,36,0.20
2018,01,22,09,37,5.10
2018,01,22,09,38,2.70
2018,01,22,09,39,0.20
2018,01,22,09,40,2.90
2018,01,22,09,41,1.00
2018,01,22,09,42,0.00
2018,01,22,09,43,1.40
2018,01,22,09,44,2.20
2018,01,22,09,45,0.00
2018,01,22,09,46,0.40
2018,01,22,09,47,0.50
2018,01,22,09,48,2.60
2018,01,22,09,49,0.00
2018,01,22,09,50,2.20
2018,01,22,09,51,7.00
2018,01,22,09,52,4.20
2018,01,22,09,53,0.80
2018,01,22,09,54,1.30
2018,01,22,09,55,1.10
2018,01,22,09,56,1.40
2018,01,22,09,57,1.10
2018,01,22,09,58,0.00
2018,01,22,09,59,1.50
2018,01,22,10,00,3.90
2018,01,22,10,01,2.50
2018,01,22,10,02,0.90
2018,01,22,10,03,1.30
2018,01,22,10,04,2.30
2018,01,22,10,05,1.00
2018,01,22,10,06,2.30
2018,01,22,10,07,3.00
2018,01,22,10,08,3.40
2018,01,22,10,09,3.60
2018,01,22,10,10,2.70
2018,01,22,10,11,0.90
2018,01,22,10,12,1.80
2018,01,22,10,13,1.00
2018,01,22,10,14,0.10
2018,01,22,10,15,0.20
2018,01,22,10,16,1.00
2018,01,22,10,17,0.30
2018,01,22,10,18,0.00
2018,01,22,10,19,0.10
2018,01,22,10,20,0.30
2018,01,22,10,21,0.10
2018,01,22,10,22,0.10
2018,01,22,10,23,2.20
2018,01,22,10,24,1.50
2018,01,22,10,25,0.00
2018,01,22,10,26,0.80
2018,01,22,10,27,0.60
2018,01,22,10,28,0.10
2018,01,22,10,29,0.20
2018,01,22,10,30,0.60
2018,01,22,10,31,1.00
2018,01,22,10,32,0.90
2018,01,22,10,33,0.00
2018,01,22,10,34,0.10
2018,01,22,10,35,0.70
2018,01,22,10,36,0.20
2018,01,22,10,37,0.20
2018,01,22,10,38,0.50
2018,01,22,10,39,2.90
2018,01,22,10,40,1.90
2018,01,22,10,41,2.60
2018,01,22,10,42,2.20
2018,01,22,10,43,3.50
2018,01,22,10,44,5.50
2018,01,22,10,45,4.90
2018,01,22,10,46,5.10
2018,01,22,10,47,5.20
2018,01,22,10,48,10.20
2018,01,22,10,49,5.60
2018,01,22,10,50,3.10
2018,01,22,10,51,5.40
2018,01,22,10,52,5.50
2018,01,22,10,53,1.50
2018,01,22,10,54,5.60
2018,01,22,10,55,4.20
2018,01,22,10,56,3.90
2018,01,22,10,57,3.20
2018,01,22,10,58,2.70
2018,01,22,10,59,2.10
2018,01,22,11,00,5.90
2018,01,22,11,01,6.70
2018,01,22,11,02,2.30
2018,01,22,11,03,1.80
2018,01,22,11,04,2.00
2018,01,22,11,05,5.60
2018,01,22,11,06,5.30
2018,01,22,11,07,3.30
2018,01,22,11,08,2.20
2018,01,22,11,09,0.00
2018,01,22,11,10,0.20
2018,01,22,11,11,0.00
2018,01,22,11,12,0.70
2018,01,22,11,13,0.00
2018,01,22,11,14,0.00
2018,01,22,11,15,0.00
2018,01,22,11,16,0.70
2018,01,22,11,17,0.70
2018,01,22,11,18,2.30
2018,01,22,11,19,2.50
2018,01,22,11,20,1.40
2018,01,22,11,21,1.80
2018,01,22,11,22,0.00
2018,01,22,11,23,3.40
2018,01,22,11,24,1.90
2018,01,22,11,25,1.00
2018,01,22,11,26,0.00
2018,01,22,11,27,0.60
2018,01,22,11,28,2.40
2018,01,22,11,29,1.90
2018,01,22,11,30,1.60
2018,01,22,11,31,0.70
2018,01,22,11,32,2.50
2018,01,22,11,33,0.90
2018,01,22,11,34,1.10
2018,01,22,11,35,0.40
2018,01,22,11,36,0.50
2018,01,22,11,37,2.00
2018,01,22,11,38,0.00
2018,01,22,11,39,0.00
2018,01,22,11,40,0.00
2018,01,22,11,41,0.00
2018,01,22,11,42,0.20
2018,01,22,11,43,0.60
2018,01,22,11,44,0.70
2018,01,22,11,45,2.20
2018,01,22,11,46,3.60
2018,01,22,11,47,0.80
2018,01,22,11,48,0.30
2018,01,22,11,49,2.00
2018,01,22,11,50,0.10
2018,01,22,11,51,3.10
2018,01,22,11,52,6.30
2018,01,22,11,53,3.80
2018,01,22,11,54,6.40
2018,01,22,11,55,8.90
2018,01,22,11,56,9.60
2018,01,22,11,57,8.60
2018,01,22,11,58,12.00
2018,01,22,11,59,8.60
2018,01,22,12,00,8.90
2018,01,22,12,01,7.00
2018,01,22,12,02,6.30
2018,01,22,12,03,10.40
2018,01,22,12,04,6.70
2018,01,22,12,05,7.40
2018,01,22,12,06,5.80
2018,01,22,12,07,7.70
2018,01,22,12,08,9.20
2018,01,22,12,09,8.30
2018,01,22,12,10,10.40
2018,01,22,12,11,11.30
2018,01,22,12,12,8.10
2018,01,22,12,13,11.40
2018,01,22,12,14,9.00
2018,01,22,12,15,9.50
2018,01,22,12,16,10.10
2018,01,22,12,17,7.20
2018,01,22,12,18,8.50
2018,01,22,12,19,11.50
2018,01,22,12,20,9.80
2018,01,22,12,21,8.10
2018,01,22,12,22,7.30
2018,01,22,12,23,10.90
2018,01,22,12,24,10.10
2018,01,22,12,25,7.70
2018,01,22,12,26,6.10
2018,01,22,12,27,6.10
2018,01,22,12,28,7.30
2018,01,22,12,29,8.40
2018,01,22,12,30,8.30
2018,01,22,12,31,6.90
2018,01,22,12,32,5.90
2018,01,22,12,33,6.80
2018,01,22,12,34,4.80
2018,01,22,12,35,4.90
2018,01,22,12,36,4.70
2018,01,22,12,37,6.00
2018,01,22,12,38,9.00
2018,01,22,12,39,7.10
2018,01,22,12,40,7.40
2018,01,22,12,41,5.30
2018,01,22,12,42,1.40
2018,01,22,12,43,5.50
2018,01,22,12,44,5.60
2018,01,22,12,45,5.70
2018,01,22,12,46,7.60
2018,01,22,12,47,9.00
2018,01,22,12,48,8.30
2018,01,22,12,49,7.70
2018,01,22,12,50,10.80
2018,01,22,12,51,11.00
2018,01,22,12,52,9.60
2018,01,22,12,53,17.90
2018,01,22,12,54,12.20
2018,01,22,12,55,10.40
2018,01,22,12,56,9.70
2018,01,22,12,57,14.70
2018,01,22,12,58,14.40
2018,01,22,12,59,15.10
2018,01,22,13,00,13.30
2018,01,22,13,01,14.70
2018,01,22,13,02,15.90
2018,01,22,13,03,14.10
2018,01,22,13,04,12.30
2018,01,22,13,05,13.60
2018,01,22,13,06,9.80
2018,01,22,13,07,20.20
2018,01,22,13,08,19.40
2018,01,22,13,09,10.50
2018,01,22,13,10,11.50
2018,01,22,13,11,11.30
2018,01,22,13,12,11.80
2018,01,22,13,13,13.30
2018,01,22,13,14,12.30
2018,01,22,13,15,8.90
2018,01,22,13,16,10.30
2018,01,22,13,17,10.20
2018,01,22,13,18,11.70
2018,01,22,13,19,9.70
2018,01,22,13,20,9.50
2018,01,22,13,21,9.00
2018,01,22,13,22,12.70
2018,01,22,13,23,12.00
2018,01,22,13,24,12.20
2018,01,22,13,25,10.20
2018,01,22,13,26,8.60
2018,01,22,13,27,7.60
2018,01,22,13,28,8.00
2018,01,22,13,29,10.20
2018,01,22,13,30,11.90
2018,01,22,13,31,13.50
2018,01,22,13,32,9.60
2018,01,22,13,33,11.40
2018,01,22,13,34,12.70
2018,01,22,13,35,8.90
2018,01,22,13,36,7.30
2018,01,22,13,37,9.50
2018,01,22,13,38,8.20
2018,01,22,13,39,13.00
2018,01,22,13,40,13.70
2018,01,22,13,41,11.20
2018,01,22,13,42,12.60
2018,01,22,13,43,11.70
2018,01,22,13,44,7.60
2018,01,22,13,45,7.10
2018,01,22,13,46,7.70
2018,01,22,13,47,9.00
2018,01,22,13,48,8.30
2018,01,22,13,49,9.50
2018,01,22,13,50,13.50
2018,01,22,13,51,10.10
2018,01,22,13,52,9.10
2018,01,22,13,53,9.70
2018,01,22,13,54,6.00
2018,01,22,13,55,6.20
2018,01,22,13,56,4.00
2018,01,22,13,57,3.00
2018,01,22,13,58,2.80
2018,01,22,13,59,2.40
2018,01,22,14,00,4.60
2018,01,22,14,01,8.40
2018,01,22,14,02,8.70
2018,01,22,14,03,6.50
2018,01,22,14,04,5.10
2018,01,22,14,05,4.60
2018,01,22,14,06,5.80
2018,01,22,14,07,3.50
2018,01,22,14,08,3.20
2018,01,22,14,09,4.40
2018,01,22,14,10,5.60
2018,01,22,14,11,2.70
2018,01,22,14,12,0.20
2018,01,22,14,13,1.50
2018,01,22,14,14,0.30
2018,01,22,14,15,3.90
2018,01,22,14,16,4.70
2018,01,22,14,17,7.30
2018,01,22,14,18,3.90
2018,01,22,14,19,3.80
2018,01,22,14,20,4.60
2018,01,22,14,21,3.10
2018,01,22,14,22,4.40
2018,01,22,14,23,3.10
2018,01,22,14,24,4.70
2018,01,22,14,25,4.10
2018,01,22,14,26,2.70
2018,01,22,14,27,1.20
2018,01,22,14,28,0.10
2018,01,22,14,29,0.80
2018,01,22,14,30,1.50
2018,01,22,14,31,1.80
2018,01,22,14,32,1.10
2018,01,22,14,33,1.30
2018,01,22,14,34,1.80
2018,01,22,14,35,0.20
2018,01,22,14,36,0.00
2018,01,22,14,37,0.00
2018,01,22,14,38,0.00
2018,01,22,14,39,0.00
2018,01,22,14,40,1.90
2018,01,22,14,41,2.60
2018,01,22,14,42,1.70
2018,01,22,14,43,0.70
2018,01,22,14,44,0.50
2018,01,22,14,45,1.00
2018,01,22,14,46,0.80
2018,01,22,14,47,1.40
2018,01,22,14,48,3.10
2018,01,22,14,49,1.80
2018,01,22,14,50,3.50
2018,01,22,14,51,1.90
2018,01,22,14,52,0.30
2018,01,22,14,53,0.60
2018,01,22,14,54,1.90
2018,01,22,14,55,1.70
2018,01,22,14,56,1.00
2018,01,22,14,57,1.50
2018,01,22,14,58,1.30
2018,01,22,14,59,0.70
2018,01,22,15,00,0.00
2018,01,22,15,01,0.00
2018,01,22,15,02,0.90
2018,01,22,15,03,1.50
2018,01,22,15,04,3.00
2018,01,22,15,05,2.00
2018,01,22,15,06,1.40
2018,01,22,15,07,0.00
2018,01,22,15,08,0.00
2018,01,22,15,09,0.00
2018,01,22,15,10,0.20
2018,01,22,15,11,0.50
2018,01,22,15,12,1.50
2018,01,22,15,13,0.00
2018,01,22,15,14,0.00
2018,01,22,15,15,0.00
2018,01,22,15,16,0.00
2018,01,22,15,17,0.00
2018,01,22,15,18,0.00
2018,01,22,15,19,1.80
2018,01,22,15,20,0.30
2018,01,22,15,21,0.10
2018,01,22,15,22,0.00
2018,01,22,15,23,0.00
2018,01,22,15,24,0.00
2018,01,22,15,25,0.10
2018,01,22,15,26,1.60
2018,01,22,15,27,1.60
2018,01,22,15,28,1.60
2018,01,22,15,29,0.50
2018,01,22,15,30,0.70
2018,01,22,15,31,1.30
2018,01,22,15,32,2.20
2018,01,22,15,33,2.60
2018,01,22,15,34,1.50
2018,01,22,15,35,0.90
2018,01,22,15,36,3.10
2018,01,22,15,37,4.10
2018,01,22,15,38,3.90
2018,01,22,15,39,2.30
2018,01,22,15,40,2.90
2018,01,22,15,41,4.70
2018,01,22,15,42,2.60
2018,01,22,15,43,3.40
2018,01,22,15,44,3.90
2018,01,22,15,45,5.10
2018,01,22,15,46,6.20
2018,01,22,15,47,3.90
2018,01,22,15,48,5.10
2018,01,22,15,49,5.30
2018,01,22,15,50,5.10
2018,01,22,15,51,5.20
2018,01,22,15,52,4.70
2018,01,22,15,53,4.80
2018,01,22,15,54,4.70
2018,01,22,15,55,5.20
2018,01,22,15,56,4.70
2018,01,22,15,57,3.60
2018,01,22,15,58,4.90
2018,01,22,15,59,3.30
2018,01,22,16,00,4.60
2018,01,22,16,01,4.20
2018,01,22,16,02,6.70
2018,01,22,16,03,7.40
2018,01,22,16,04,6.50
2018,01,22,16,05,5.30
2018,01,22,16,06,4.50
2018,01,22,16,07,2.30
2018,01,22,16,08,2.80
2018,01,22,16,09,4.30
2018,01,22,16,10,3.00
2018,01,22,16,11,1.50
2018,01,22,16,12,1.00
2018,01,22,16,13,0.50
2018,01,22,16,14,0.50
2018,01,22,16,15,1.10
2018,01,22,16,16,0.00
2018,01,22,16,17,1.40
2018,01,22,16,18,1.60
2018,01,22,16,19,1.40
2018,01,22,16,20,0.60
2018,01,22,16,21,1.30
2018,01,22,16,22,1.10
2018,01,22,16,23,1.10
2018,01,22,16,24,1.60
2018,01,22,16,25,0.60
2018,01,22,16,26,1.60
2018,01,22,16,27,0.00
2018,01,22,16,28,0.00
2018,01,22,16,29,0.10
2018,01,22,16,30,0.10
2018,01,22,16,31,0.00
2018,01,22,16,32,0.00
2018,01,22,16,33,0.00
2018,01,22,16,34,0.00
2018,01,22,16,35,0.00
2018,01,22,16,36,0.00
2018,01,22,16,37,0.00
2018,01,22,16,38,0.00
2018,01,22,16,39,0.00
2018,01,22,16,40,0.00
2018,01,22,16,41,0.20
2018,01,22,16,42,0.30
2018,01,22,16,43,0.10
2018,01,22,16,44,0.70
2018,01,22,16,45,0.60
2018,01,22,16,46,0.00
2018,01,22,16,47,0.20
2018,01,22,16,48,0.20
2018,01,22,16,49,0.00
2018,01,22,16,50,3.10
2018,01,22,16,51,3.40
2018,01,22,16,52,3.00
2018,01,22,16,53,3.00
2018,01,22,16,54,2.60
2018,01,22,16,55,2.80
2018,01,22,16,56,0.70
2018,01,22,16,57,1.30
2018,01,22,16,58,1.20
2018,01,22,16,59,0.00
2018,01,22,17,00,0.30
2018,01,22,17,01,0.60
2018,01,22,17,02,1.10
2018,01,22,17,03,1.50
2018,01,22,17,04,0.70
2018,01,22,17,05,0.80
2018,01,22,17,06,1.40
2018,01,22,17,07,1.60
2018,01,22,17,08,2.40
2018,01,22,17,09,1.10
2018,01,22,17,10,1.00
2018,01,22,17,11,2.10
2018,01,22,17,12,2.20
2018,01,22,17,13,1.80
2018,01,22,17,14,0.20
2018,01,22,17,15,0.00
2018,01,22,17,16,1.10
2018,01,22,17,17,1.50
2018,01,22,17,18,1.10
2018,01,22,17,19,1.70
2018,01,22,17,20,2.30
2018,01,22,17,21,3.20
2018,01,22,17,22,1.70
2018,01,22,17,23,2.70
2018,01,22,17,24,2.90
2018,01,22,17,25,1.90
2018,01,22,17,26,3.50
2018,01,22,17,27,1.90
2018,01,22,17,28,0.30
2018,01,22,17,29,0.30
2018,01,22,17,30,0.10
2018,01,22,17,31,0.00
2018,01,22,17,32,0.30
2018,01,22,17,33,0.00
2018,01,22,17,34,0.00
2018,01,22,17,35,0.20
2018,01,22,17,36,0.10
2018,01,22,17,37,3.00
2018,01,22,17,38,2.30
2018,01,22,17,39,3.20
2018,01,22,17,40,3.20
2018,01,22,17,41,4.30
2018,01,22,17,42,3.90
2018,01,22,17,43,3.50
2018,01,22,17,44,3.70
2018,01,22,17,45,3.30
2018,01,22,17,46,1.80
2018,01,22,17,47,0.10
2018,01,22,17,48,0.90
2018,01,22,17,49,2.70
2018,01,22,17,50,1.90
2018,01,22,17,51,0.70
2018,01,22,17,52,0.00
2018,01,22,17,53,0.20
2018,01,22,17,54,0.10
2018,01,22,17,55,0.70
2018,01,22,17,56,0.20
2018,01,22,17,57,0.00
2018,01,22,17,58,0.50
2018,01,22,17,59,0.40
2018,01,22,18,00,0.00
2018,01,22,18,01,0.60
2018,01,22,18,02,1.80
2018,01,22,18,03,0.60
2018,01,22,18,04,2.30